Other Public Products
Issued by NWS Grand Forks, ND

Home | Current Version | Previous Version | Text Only | Print | Product List | Glossary Off
Versions: 1 2 3 4 5 6 7 8 9 10 11 12 13 14 15 16 17 18 19 20 21 22 23 24 25 26 27 28 29 30 31 32 33 34 35 36 37 38 39 40 41 42 43 44 45 46 47 48 49 50

000
FPUS83 KFGF 290610
OPUFGF
PRAIRIE TO PINES WEATHER ROUNDUP
NATIONAL WEATHER SERVICE EASTERN NORTH DAKOTA/GRAND FORKS ND
100 AM CDT SUN MAR 29 2015

 **SATELLITE DATA USED TO AUGMENT SKY COVER AT AUTOMATED STATIONS**
 *****  WEATHER ACROSS EASTERN NORTH DAKOTA  *****

CITY           SKY/WX    TMP DP  RH WIND       PRES   REMARKS
GRAND FORKS    RAIN      41  36  82 S25G37    29.46F
6HR MIN TEMP:  40; 6HR MAX TEMP:  49; 6HR PCP:  0.06;

GRAND FORKS AF NOT AVBL
GRAND CITY NWS   N/A     37 N/A N/A S20         N/A
BUXTON         NOT AVBL
DEVILS LAKE    CLOUDY    48  45  87 W18G26    29.43S
6HR MIN TEMP:  45; 6HR MAX TEMP:  48; 6HR PCP:  0.08;

FARGO          CLOUDY    44  30  57 S16       29.61F
6HR MIN TEMP:  44; 6HR MAX TEMP:  52; 6HR PCP: TRACE;

WAHPETON ARPT  CLOUDY    41  28  60 S13       29.67F
$$

 *****  WEATHER ACROSS CENTRAL AND WESTERN NORTH DAKOTA  *****

CITY           SKY/WX    TMP DP  RH WIND       PRES   REMARKS
JAMESTOWN      RAIN      45  39  79 S14       29.53F
6HR MIN TEMP:  44; 6HR MAX TEMP:  50; 6HR PCP:  0.10;

BISMARCK       CLOUDY    50  41  71 W17       29.62S
6HR MIN TEMP:  50; 6HR MAX TEMP:  64; 6HR PCP:  0.12;

MINOT          CLOUDY    49  46  90 W21G29    29.53S
6HR MIN TEMP:  49; 6HR MAX TEMP:  66; 6HR PCP:  0.02;

MINOT AFB      DRIZZLE   48  48 100 NW22G29   29.54R
6HR MIN TEMP:  49; 6HR MAX TEMP:  63; 6HR PCP:  0.01;

GARRISON         N/A     48  41  76 W23G32    29.57F
6HR MIN TEMP:  48; 6HR MAX TEMP:  64; 6HR PCP:  0.12;

WILLISTON      LGT RAIN  41  37  86 N32G43    29.73R
6HR MIN TEMP:  42; 6HR MAX TEMP:  60; 6HR PCP:  0.10;

DICKINSON      PTCLDY    46  35  65 W26G36    29.65F
6HR MIN TEMP:  44; 6HR MAX TEMP:  57; 6HR PCP: TRACE;

HETTINGER      PTCLDY    45  32  60 W22G33    29.73F
6HR MIN TEMP:  41; 6HR MAX TEMP:  73; 6HR PCP:  0.01;

$$

 *****  OTHER OBSERVATIONS NORTHEAST NORTH DAKOTA  *****

CITY           SKY/WX    TMP DP  RH WIND       PRES   REMARKS
WALHALLA       LGT RAIN  41  41 100 CALM      29.41F
LANGDON        NOT AVBL
CAVALIER         N/A     39  37  93 S13       29.42F
GRAFTON        NOT AVBL
CANDO          NOT AVBL
FORT TOTTEN      N/A     51  51  98 W12       29.95
ROLLA          CLOUDY    45  45 100 NW26      29.45R
RUGBY            N/A     46  46 100 NW23G35   29.48R
 ***** THE ABOVE OBSERVATIONS ARE NON NWS ARE NOT QUALITY
        CONTROLLED AND MAY MIS-REPORT RAIN FOR SNOW...
$$

 *****  OTHER OBSERVATIONS SOUTHEAST NORTH DAKOTA *****

CITY           SKY/WX    TMP DP  RH WIND       PRES   REMARKS
COOPERSTOWN    NOT AVBL
VALLEY CITY    CLOUDY    43  43 100 S18G25    29.55S FOG
OAKES            N/A     46  37  71 S20       29.59F
GWINNER        PTCLDY    48  34  57 S17         N/A
SHEYENNE NWR     N/A     40  36  84 S8        29.95S
BUFFALO        NOT AVBL
WYNDMERE         N/A     43  32  65 SE6         N/A
 ***** THE ABOVE OBSERVATIONS ARE NON NWS ARE NOT QUALITY
       CONTROLLED AND MAY MIS-REPORT RAIN FOR SNOW...
$$

  *****  WEATHER ACROSS NORTHERN MINNESOTA  *****

CITY           SKY/WX    TMP DP  RH WIND       PRES   REMARKS
FLAG ISLAND    RAIN      36  30  80 S23       29.51F
WARROAD        RAIN      39  34  81 S14G28    29.54F
ROSEAU         LGT RAIN  37  34  87 S20G31    29.52F
HALLOCK        MIX PCPN  39  36  87 S23       29.47F
THF RVR FALLS  CLOUDY    39  34  81 S24       29.54F
6HR MIN TEMP:  39; 6HR MAX TEMP:  43;

HALSTAD        NOT AVBL
FOSSTON        CLOUDY    39  28  65 S21       29.60F
BAUDETTE       CLOUDY    39  28  64 S16G23    29.58F
6HR MIN TEMP:  38; 6HR MAX TEMP:  43;

WASKISH        CLOUDY    37  30  75 S12G22    29.62F
CROOKSTON      MIX PCPN  39  34  81 S28G35    29.55F
$$
  *****  WEATHER ACROSS CENTRAL AND WEST MINNESOTA  *****

CITY           SKY/WX    TMP DP  RH WIND       PRES   REMARKS
BEMIDJI        CLOUDY    39  27  62 S12       29.68R
PARK RAPIDS    CLOUDY    38  26  62 SW9G28    29.74R
6HR MIN TEMP:  38; 6HR MAX TEMP:  43;

WADENA         CLOUDY    37  27  65 S20G25    29.68F
DETROIT LAKES  CLOUDY    43  30  61 S17G23    29.68F
MOORHEAD       LGT RAIN  43  36  75 S18G24    29.63F
FERGUS FALLS   CLOUDY    39  27  60 S13       29.74R
ELBOW LAKE     FAIR      38  29  71 SW17      29.74R
MORRIS MN      MOCLDY    37  30  75 SE20G25   29.66F
STAPLES        CLOUDY    37  25  60 S22G28    29.70F
WHEATON        CLOUDY    39  28  65 SW6       29.73R
$$
  *****  WEATHER ELSEWHERE ACROSS MINNESOTA  *****

CITY           SKY/WX    TMP DP  RH WIND       PRES   REMARKS
DULUTH         MOCLDY    34  18  52 S16G26    29.80F WCI  24
6HR MIN TEMP:  33; 6HR MAX TEMP:  40;

INTRNTL FALLS  LGT RAIN  37  24  59 S10G21    29.66F
6HR MIN TEMP:  37; 6HR MAX TEMP:  42; 6HR PCP: TRACE;

ELY            CLOUDY    34  19  55 S16G26    29.73F WCI  23
CLOQUET        MOCLDY    34  18  51 S12G18    29.80F
BRAINERD       CLOUDY    36  23  59 S16G32    29.74F
6HR MIN TEMP:  35; 6HR MAX TEMP:  39;

HIBBING        CLOUDY    33  19  56 S13G23    29.73F WCI  24
6HR MIN TEMP:  33; 6HR MAX TEMP:  40;

ALEXANDRIA     CLOUDY    39  27  62 S24G33    29.69F
6HR MIN TEMP:  38; 6HR MAX TEMP:  42;

SAINT CLOUD    PTCLDY    36  23  59 S16       29.80F
6HR MIN TEMP:  35; 6HR MAX TEMP:  41;

MINNEAPOLIS    PTCLDY    36  20  52 S17G26    29.90F
6HR MIN TEMP:  35; 6HR MAX TEMP:  39;

$$

  *****  WEATHER ACROSS SOUTH DAKOTA  *****

CITY           SKY/WX    TMP DP  RH WIND       PRES   REMARKS
SIOUX FALLS    PTCLDY    43  31  62 S23       29.74F
6HR MIN TEMP:  43; 6HR MAX TEMP:  51;

BROOKINGS      NOT AVBL
WATERTOWN      MOCLDY    44  31  60 S22G39    29.62F
6HR MIN TEMP:  43; 6HR MAX TEMP:  50;

HURON          CLOUDY    47  33  58 S9G20     29.66R
6HR MIN TEMP:  46; 6HR MAX TEMP:  56;

SISSETON         N/A     46  34  62 SW9       29.66R
ABERDEEN       CLOUDY    48  36  63 S10       29.64F
6HR MIN TEMP:  47; 6HR MAX TEMP:  56; 6HR PCP: TRACE;

MITCHELL       CLOUDY    50  34  54 S20G28    29.65F
PIERRE         CLEAR     53  44  71 NW21      29.72R
6HR MIN TEMP:  53; 6HR MAX TEMP:  66;

MOBRIDGE       CLOUDY    49  43  80 NW16      29.64F
RAPID CITY     CLEAR     54  15  21 NW26G36   29.82R
6HR MIN TEMP:  54; 6HR MAX TEMP:  82;

$$

  *****  SOME WEATHER IN NEARBY STATES *****

CITY           SKY/WX    TMP DP  RH WIND       PRES   REMARKS
GLASGOW MT     CLOUDY    44  38  79 NW28G44   29.95R
6HR MIN TEMP:  44; 6HR MAX TEMP:  54; 6HR PCP:  0.11;

GREAT FALLS MT MOCLDY    42  26  53 SW13      30.15R
6HR MIN TEMP:  42; 6HR MAX TEMP:  50; 6HR PCP: TRACE;

CHEYENNE WY    CLEAR     55  15  20 NW25G38   30.00R
6HR MIN TEMP:  53; 6HR MAX TEMP:  70;

SCOTTSBLUFF NE CLEAR     54  31  41 NW15      29.97R
6HR MIN TEMP:  54; 6HR MAX TEMP:  80;

OMAHA NE       CLEAR     43  32  65 S24G31    29.90F
6HR MIN TEMP:  43; 6HR MAX TEMP:  53;

DES MOINES IA  CLEAR     38  23  55 S17       30.04F
6HR MIN TEMP:  38; 6HR MAX TEMP:  48;

DAVENPORT IA   CLEAR     32  16  51 S14       30.18F WCI  22
6HR MIN TEMP:  31; 6HR MAX TEMP:  39;

CHICAGO IL     PTCLDY    23  14  68 S7        30.25F WCI  15
6HR MIN TEMP:  22; 6HR MAX TEMP:  32;

EAU CLAIRE WI  MOCLDY    34  14  43 S16       29.97F WCI  24
6HR MIN TEMP:  33; 6HR MAX TEMP:  37;

LA CROSSE WI   CLOUDY    37  16  42 S16G24    30.04F
6HR MIN TEMP:  34; 6HR MAX TEMP:  40;

$$

  *****  SOME NATIONAL WEATHER *****

CITY           SKY/WX    TMP DP  RH WIND       PRES   REMARKS
LA GUARDIA NY  CLOUDY    27  15  61 N13G22    30.14R WCI  16



USA.gov is the U.S. government's official web portal to all federal, state and local government web resources and services.